FENGYUN 1C DEB

Satellite information

Favourite Embed

Satellite Type and Status

DEBRISIN ORBIT

Key statistics

Satellite FENGYUN 1C DEB at a glance.

Uptime

9498

Days in orbit

Revolutions

≈ 14.2

Per day

Orbit

SSO

Sun Synchronous Orbit

Inclination

98.6

Latest

Satellite identification and parameters

Extended collection of information and parameters for FENGYUN 1C DEB.

Object identification

Identified? True

Debris? True

Object name: FENGYUN 1C DEB

International designator: 1999-025EJX

Object number (NORAD): 37477

Object ID (CCSDS): 37477

Country: PEOPLES REPUBLIC OF CHINA (PRC)

Current information (Y/N): Y

RCS size: SMALL

Orbital parameters

Period: 101.489 minutes

Inclination: 98.6051 deg

SMA: 7207.291 km

Apoapsis: 856.021 km

Periapsis: 802.292 km

RAAN: 137.2511 deg

Eccentricy: 0.0037274

Argument of periapsis: 26.2998 deg

Mean anomaly: 334.006 deg

Mean motion: 14.18876625 rev/day

Mean motion (dot): 0.00002216 rev/day2

B* drag term: 0.0010772 1/REarth

Two-line elements (TLE)

Creation date: May 7, 2025, 3:14 a.m.

Reference frame: TEME

Reference center: EARTH

Epoch: May 6, 2025, 6:49 a.m. UTC

TLE line 0: 0 FENGYUN 1C DEB

TLE line 1: 1 37477U 99025EJX 25126.28419323 .00002216 00000-0 10772-2 0 9991

TLE line 2: 2 37477 98.6051 137.2511 0037274 26.2998 334.0060 14.18876625787879

Live tracking on map

Real-time ground track for satellite FENGYUN 1C DEB.

In-orbit conjunctions

A list of the most updated potential collisions computed for object FENGYUN 1C DEB.

Target Orbit TCA Probability of collision Miss distance Type
CZ-6A DEB LEO 2025-02-18 12:42:09 0.0002626108 250.0 (m) DEBRIS
THORAD AGENA D DEB SSO 2024-11-16 16:55:50 0.0002820283 489.0 (m) DEBRIS
FENGYUN 1C DEB SSO 2024-09-24 18:07:22 0.0004028805 214.0 (m) DEBRIS

Associated space launch

Chinese polar orbiting meteorological satellite

FENGYUN 1C DEB was lifted into orbit during the mission ‘Long March 4B | Feng Yun 1C’, on board a Long March 4B space rocket.

The launch took place on May 10, 1999, 1:33 a.m. from Launch Complex 7.

For more information about the launch, click the button.

Launch to space Long March 4B | Feng Yun 1C
Long March 4B | Feng Yun 1C

Agency: N/A

Status: Launch Successful

Launch date: May 10, 1999, 1:33 a.m. UTC

Rocket: Long March 4B

Launch pad: Launch Complex 7

Location: Taiyuan Satellite Launch Center, People's Republic of China

...

Latest news about this satellite

There are no fresh news available about this satellite. Check back as we update our databases every day.


Newsletter sign-up

Weekly statistics, charts and insights to help you stay on top of the space industry.